Погода в Мендзыжеце-Подляски

Польша     51°58′48″N   22°47′43″E
темп.,
°C
ветер,
м/с
пор.,
м/с
влажн.,
%
обл.,
%
осадки,
мм/ч
давл.,
гПа
погр.,
м
28 февраля, вс
вс2801:000сз511930 0.0 1032364
04:000зсз499042 0.0 1031329
07:000зсз5108167 0.0 1031307
10:00+4зсз6106469 0.0 1030469
13:00+7зсз7116851 0.0 1028858
16:00+4сз8118084 0.0 1027880
19:00+3сз6129084 0.0 1028605
22:00+3ссз61190100 0.1 1029487
1 марта, пн
пн101:00+2ссз4893100 0.1 1031344
04:00+1ссз349788 0.0 1032133
07:00+1сз349692 0.0 1033278
10:00+2зсз3490100 0.0 1033333
13:00+6з247294 0.0 1034568
16:00+8зсз367032 0.0 1033534
19:00+4з368617 0.0 1033127
22:00+3з49900 0.0 1032205
2 марта, вт
вт201:00+2з511909 0.0 1032272
04:00+1з511920 0.0 1030286
07:00+1зсз511940 0.0 1030322
10:00+5зсз587712 0.0 1031556
13:00+7зсз576715 0.0 1030675
16:00+8зсз58700 0.0 1029652
19:00+4зсз49890 0.0 1030251
22:00+3сз35935 0.0 1030104
3 марта, ср
ср301:00+2зсз339552 0.0 103166
04:00+1зсз339622 0.0 103068
07:000сз239711 0.0 103075
10:00+5зсз23751 0.0 1030342
13:00+8з236224 0.0 1029599
16:00+8зюз246459 0.0 1027623
19:00+4з228529 0.0 102622
22:00+3зюз238824 0.0 102522
4 марта, чт
чт401:00+1зюз339012 0.0 102346
04:00+1зюз34890 0.0 102170
07:00+1юз48860 0.0 1019153
10:00+6юз576548 0.0 1016335
13:00+10зюз586037 0.0 1014685
16:00+9зюз4966100 0.0 1011609
19:00+6зюз4980100 0.0 1010264
22:00+5зюз4787100 0.1 1008192